Regional Weather Roundup
Issued by NWS

Home | Current Version | Previous Version | Graphics & Text | Print | Product List | Glossary On
Versions: 1 2 3 4 5 6 7 8 9 10 11 12 13 14 15 16 17 18 19 20 21 22 23 24 25 26 27 28 29 30 31 32 33 34 35 36 37 38 39 40 41 42 43 44 45 46 47 48 49 50
000
ASUS43 KDMX 280704
RWRIA

WEATHER ROUNDUP FOR IOWA
NATIONAL WEATHER SERVICE DES MOINES IA
  ISSUED BY NWS QUAD CITIES IA IL
100 AM CST WED JAN 28 2015

NOTE: "FAIR" INDICATES FEW OR NO CLOUDS BELOW 12,000 FEET WITH NO
SIGNIFICANT WEATHER AND/OR OBSTRUCTIONS TO VISIBILITY.

* - THESE STATIONS ARE NOT NWS STATIONS...THUS NOT UNDER NWS
QUALITY CONTROL.  THEY ALSO DO NOT REPORT WEATHER SUCH
AS PRECIPITATION OR FOG.

IAZ001>003-012>014-020>022-031>034-043>046-280800-
   NORTHWEST IOWA

CITY           SKY/WX    TMP DP  RH WIND       PRES   REMARKS
CARROLL *      PTCLDY    30  28  93 SE14      30.03F FOG     WCI  20
CHEROKEE *     SUNNY     32  31  98 SE6       29.98F WCI  26
DENNISON *     CLEAR     34  32  93 CALM      29.98F
LE MARS *      PTCLDY    36  32  87 S9        29.96S WCI  29
ORANGE CITY *  CLEAR     36  30  80 SE9       29.95F WCI  29
SIOUX CITY     PTCLDY    32  29  88 SE8       29.96F WCI  25
SPENCER        CLEAR     32  28  85 SE14      30.00F WCI  22
$$

IAZ055>058-069>071-079>083-090>094-280800-
   SOUTHWEST IOWA

CITY           SKY/WX    TMP DP  RH WIND       PRES   REMARKS
ATLANTIC *     CLEAR     36  32  87 S5        30.01F WCI  32
AUDUBON *      CLEAR     34  30  86 SE6       30.03F WCI  29
CLARINDA *     CLEAR     37  32  81 SE7       30.03F WCI  32
COUNCIL BLFS * CLEAR     36  32  87 SE12      29.97F WCI  27
CRESTON *      FAIR      32  30  93 SE12      30.04F WCI  23
HARLAN *       CLEAR     36  36 100 SE8       30.03F WCI  29
LAMONI         CLEAR     32  29  88 SE8       30.06F WCI  25
RED OAK *      CLEAR     36  32  87 SE7       30.00F WCI  30
$$

IAZ047>049-059>061-072>074-084-280800-
   CENTRAL IOWA

CITY           SKY/WX    TMP DP  RH WIND       PRES   REMARKS
AMES           CLOUDY    29  26  89 SE16      30.11F FOG     WCI  17
ANKENY *       CLOUDY    28  28 100 SE9G15    30.11F WCI  20
BOONE *        CLOUDY    30  30 100 SE17      30.07F FOG     WCI  18
CHARITON *     MOCLDY    28  28 100 SE12      30.10S FOG     WCI  18
DES MOINES     MOCLDY    30  26  85 SE12      30.11F WCI  20
GRINNELL *     CLOUDY    28  27  96 SE12G18   30.15S FOG     WCI  18
KNOXVILLE *    CLOUDY    28  27  93 SE14      30.11F FOG     WCI  17
MARSHALLTOWN   CLOUDY    28  27  96 SE16      30.13F FOG     WCI  16
PELLA *        CLOUDY    29  28  94 SE13G18   30.15F FOG     WCI  19
PERRY *          N/A     30  29  96 SE15      30.06F FOG     WCI  19
$$

IAZ004>006-015-016-023>025-035-036-280800-
   NORTH CENTRAL IOWA

CITY           SKY/WX    TMP DP  RH WIND       PRES   REMARKS
ALGONA *       CLOUDY    32  30  93 SE20G25   30.04F FOG     WCI  20
CLARION *      CLOUDY    30  30 100 SE20      30.07F FOG     WCI  18
ESTHERVILLE    CLOUDY    30  29  96 SE21      30.01F FOG     WCI  17
FORT DODGE *   CLOUDY    28  25  86 SE13      30.06F WCI  18
MASON CITY     CLOUDY    29  27  92 SE16      30.10F FOG     WCI  17
WEBSTER CITY * CLOUDY    30  30 100 SE21      30.06F FOG     WCI  17
IOWA FALLS *   CLOUDY    29  28  93 SE14      30.12F FOG     WCI  19
$$

IAZ007>011-017>019-026>030-037>042-050>054-066-280800-
   NORTHEAST IOWA

CITY           SKY/WX    TMP DP  RH WIND       PRES   REMARKS
CEDAR RAPIDS   CLOUDY    27  24  89 SE10      30.19S FOG     WCI  17
CHARLES CITY * CLOUDY    28  28 100 SE14      30.15S WCI  17
CLINTON *      CLOUDY    27  23  86 SE7       30.26S WCI  19
DECORAH *      CLOUDY    25  23  93 S10G16    30.16F WCI  15
DUBUQUE        CLOUDY    25  22  88 S9        30.20F FOG     WCI  15
MONTICELLO *   CLOUDY    27  25  93 SE8       30.22R WCI  18
OELWEIN *      CLOUDY    27  25  93 SE12G17   30.18S WCI  16
WATERLOO       CLOUDY    27  25  92 SE13      30.17S WCI  16
$$

IAZ064-065-067-068-078-280800-
   EAST CENTRAL IOWA

CITY           SKY/WX    TMP DP  RH WIND       PRES   REMARKS
DAVENPORT      CLOUDY    26  21  81 S12       30.23F WCI  16
IOWA CITY      CLOUDY    27  24  89 SE12      30.23S WCI  17
MT. PLEASANT * CLOUDY    29  27  95 SE8       30.21F FOG     WCI  21
MUSCATINE *    CLOUDY    28  25  86 S9        30.24R WCI  20
QUAD CITIES    CLOUDY    28  23  81 S8        30.23F WCI  20
$$

IAZ062-063-075>077-085>089-095>099-280800-
   SOUTHEAST IOWA

CITY           SKY/WX    TMP DP  RH WIND       PRES   REMARKS
BURLINGTON     CLOUDY    29  26  89 SE8       30.22S FOG     WCI  21
FAIRFIELD *    CLOUDY    28  27  93 SE14      30.18F FOG     WCI  17
FORT MADISON * CLOUDY    28  27  93 SE6       30.22S FOG     WCI  22
OTTUMWA        CLOUDY    29  27  92 SE14      30.16F FOG     WCI  18
WASHINGTON *   CLOUDY    28  28 100 SE12      30.20F FOG     WCI  18
$$

ABBREVIATIONS USED IN REMARKS
   TC - TEMPERATURES IN CELSIUS
  WCI - WIND CHILL INDEX
   HX - HEAT INDEX
  VSB - VISIBILITY
$$


USA.gov is the U.S. government's official web portal to all federal, state and local government web resources and services.